VIR4PM LGAV-EGKK

Flight info

Callsign VIR4PM
Flight time 1h 48m
Altitude 38000
Route KOR UL613 XANIS DCT DIMIS DCT RODON DCT SIPAL DCT OKLAX DCT PEVAL DCT LAMPO DCT GUNGO DCT SAFFA DCT ELMUR DCT RIPUS DCT DITON DCT HOC DCT LUL DCT RLP DCT ROTSI DCT KOTUN DCT NINAL DCT KESAX DCT KUNAV
Aircraft A346/H-SDE2E3FGHIJ3J4J5M1RWXY/LB1D1

Departure

Time 2026-05-06 15:52
Airport Athens Eleftherios Venizelos International Airport (LGAV)

Arrival

Time 2026-05-06 17:40
Airport London Gatwick Airport (EGKK)
Time Latitude Longitude Altitude Speed Heading
2026-05-06 15:26 37.93499 23.94770 309 ft 0 kts 306°
2026-05-06 15:37 37.93494 23.94779 310 ft 0 kts 306°
2026-05-06 15:37 37.93479 23.94806 309 ft 0 kts 306°
2026-05-06 15:37 37.93463 23.94830 309 ft 0 kts 317°
2026-05-06 15:38 37.93448 23.94838 310 ft 0 kts 358°
2026-05-06 15:38 37.93431 23.94831 309 ft 0 kts 36°
2026-05-06 15:38 37.93426 23.94827 307 ft 0 kts 40°
2026-05-06 15:42 37.93427 23.94828 310 ft 1 kts 40°
2026-05-06 15:43 37.93438 23.94839 311 ft 3 kts 36°
2026-05-06 15:43 37.93467 23.94857 312 ft 6 kts 21°
2026-05-06 15:43 37.93513 23.94882 311 ft 8 kts 28°
2026-05-06 15:43 37.93569 23.94929 312 ft 11 kts 37°
2026-05-06 15:44 37.93638 23.94995 311 ft 14 kts 37°
2026-05-06 15:44 37.93706 23.95061 312 ft 6 kts 49°
2026-05-06 15:44 37.93709 23.95119 311 ft 9 kts 110°
2026-05-06 15:44 37.93671 23.95191 311 ft 12 kts 133°
2026-05-06 15:45 37.93669 23.95288 306 ft 14 kts 46°
2026-05-06 15:45 37.93748 23.95373 307 ft 16 kts 37°
2026-05-06 15:45 37.93843 23.95465 307 ft 18 kts 37°
2026-05-06 15:45 37.93951 23.95569 307 ft 20 kts 37°
2026-05-06 15:46 37.94070 23.95681 309 ft 22 kts 36°
2026-05-06 15:46 37.94198 23.95801 308 ft 24 kts 37°
2026-05-06 15:46 37.94333 23.95930 308 ft 25 kts 37°
2026-05-06 15:46 37.94476 23.96065 310 ft 26 kts 37°
2026-05-06 15:47 37.94625 23.96206 310 ft 27 kts 37°
2026-05-06 15:47 37.94778 23.96352 310 ft 28 kts 37°
2026-05-06 15:47 37.94937 23.96502 312 ft 29 kts 37°
2026-05-06 15:47 37.95100 23.96657 311 ft 30 kts 37°
2026-05-06 15:48 37.95249 23.96798 313 ft 23 kts 37°
2026-05-06 15:48 37.95372 23.96915 312 ft 22 kts 40°
2026-05-06 15:48 37.95370 23.97009 315 ft 7 kts 153°
2026-05-06 15:48 37.95363 23.97012 313 ft 0 kts 163°
2026-05-06 15:49 37.95362 23.97012 313 ft 0 kts 163°
2026-05-06 15:49 37.95356 23.97015 313 ft 2 kts 163°
2026-05-06 15:50 37.95325 23.97024 316 ft 7 kts 172°
2026-05-06 15:50 37.95280 23.97035 319 ft 7 kts 167°
2026-05-06 15:50 37.95221 23.97041 319 ft 11 kts 192°
2026-05-06 15:50 37.95146 23.96980 321 ft 15 kts 218°
2026-05-06 15:51 37.94992 23.96831 316 ft 51 kts 217°
2026-05-06 15:51 37.94531 23.96394 302 ft 113 kts 217°
2026-05-06 15:51 37.93755 23.95656 288 ft 164 kts 217°
2026-05-06 15:51 37.92739 23.94685 414 ft 195 kts 217°
2026-05-06 15:52 37.91635 23.93672 1082 ft 197 kts 212°
2026-05-06 15:52 37.90452 23.92757 1790 ft 202 kts 210°
2026-05-06 15:52 37.89234 23.91873 2459 ft 200 kts 208°
2026-05-06 15:52 37.88000 23.91018 3018 ft 204 kts 208°
2026-05-06 15:53 37.86718 23.90202 3565 ft 210 kts 205°
2026-05-06 15:53 37.85347 23.89492 3975 ft 223 kts 203°
2026-05-06 15:53 37.83857 23.88685 4319 ft 241 kts 206°
2026-05-06 15:53 37.82290 23.87727 4809 ft 254 kts 208°
2026-05-06 15:54 37.80717 23.86691 5572 ft 255 kts 210°
2026-05-06 15:54 37.79153 23.85614 6379 ft 257 kts 210°
2026-05-06 15:54 37.77575 23.84514 7120 ft 260 kts 211°
2026-05-06 15:54 37.75978 23.83393 7889 ft 264 kts 211°
2026-05-06 15:55 37.74362 23.82264 8695 ft 267 kts 210°
2026-05-06 15:55 37.72710 23.81154 9504 ft 271 kts 211°
2026-05-06 15:55 37.71261 23.79596 10064 ft 282 kts 239°
2026-05-06 15:55 37.70655 23.77247 10460 ft 295 kts 270°
2026-05-06 15:56 37.71069 23.74657 10880 ft 309 kts 291°
2026-05-06 15:56 37.71899 23.72073 11324 ft 326 kts 294°
2026-05-06 15:56 37.72784 23.69347 11714 ft 344 kts 292°
2026-05-06 15:56 37.73672 23.66444 12090 ft 363 kts 291°
2026-05-06 15:57 37.74558 23.63385 12552 ft 376 kts 291°
2026-05-06 15:57 37.75435 23.60239 13345 ft 381 kts 290°
2026-05-06 15:57 37.76303 23.57060 14166 ft 384 kts 290°
2026-05-06 15:57 37.77171 23.53848 14908 ft 387 kts 290°
2026-05-06 15:58 37.78040 23.50610 15671 ft 390 kts 290°
2026-05-06 15:58 37.78911 23.47349 16452 ft 392 kts 290°
2026-05-06 15:58 37.79772 23.44110 17219 ft 394 kts 290°
2026-05-06 15:58 37.80650 23.40806 17986 ft 397 kts 290°
2026-05-06 15:59 37.81532 23.37478 18679 ft 400 kts 290°
2026-05-06 15:59 37.82422 23.34114 19297 ft 403 kts 290°
2026-05-06 15:59 37.83315 23.30731 19904 ft 407 kts 290°
2026-05-06 15:59 37.84216 23.27315 20525 ft 410 kts 290°
2026-05-06 16:00 37.85123 23.23869 21141 ft 414 kts 290°
2026-05-06 16:00 37.86037 23.20395 21742 ft 417 kts 290°
2026-05-06 16:00 37.86960 23.16883 22337 ft 421 kts 290°
2026-05-06 16:00 37.87887 23.13349 22934 ft 424 kts 290°
2026-05-06 16:01 37.88821 23.09783 23504 ft 428 kts 290°
2026-05-06 16:01 37.89757 23.06212 23972 ft 432 kts 290°
2026-05-06 16:01 37.90705 23.02579 24448 ft 436 kts 290°
2026-05-06 16:01 37.91668 22.98923 24949 ft 438 kts 291°
2026-05-06 16:02 37.92943 22.95403 25442 ft 439 kts 300°
2026-05-06 16:02 37.94638 22.92182 25939 ft 441 kts 308°
2026-05-06 16:02 37.96718 22.89305 26435 ft 444 kts 315°
2026-05-06 16:02 37.98985 22.86622 26908 ft 447 kts 317°
2026-05-06 16:03 38.01289 22.83956 27355 ft 450 kts 317°
2026-05-06 16:03 38.03621 22.81266 27807 ft 453 kts 317°
2026-05-06 16:03 38.05961 22.78557 28262 ft 456 kts 317°
2026-05-06 16:03 38.08270 22.75877 28857 ft 455 kts 316°
2026-05-06 16:04 38.10599 22.73164 29509 ft 454 kts 316°
2026-05-06 16:04 38.12920 22.70458 30164 ft 452 kts 316°
2026-05-06 16:04 38.15243 22.67757 30745 ft 450 kts 316°
2026-05-06 16:04 38.17548 22.65080 31342 ft 448 kts 316°
2026-05-06 16:05 38.19843 22.62412 31947 ft 445 kts 316°
2026-05-06 16:05 38.22120 22.59761 32560 ft 442 kts 316°
2026-05-06 16:05 38.24384 22.57124 33175 ft 439 kts 315°
2026-05-06 16:05 38.26595 22.54545 33807 ft 435 kts 315°
2026-05-06 16:06 38.28816 22.51951 34371 ft 432 kts 315°
2026-05-06 16:06 38.31029 22.49361 34825 ft 430 kts 315°
2026-05-06 16:06 38.33231 22.46782 35206 ft 431 kts 315°
2026-05-06 16:06 38.35441 22.44193 35558 ft 431 kts 315°
2026-05-06 16:07 38.37651 22.41602 35900 ft 432 kts 315°
2026-05-06 16:07 38.39865 22.39005 36235 ft 432 kts 315°
2026-05-06 16:07 38.42076 22.36411 36548 ft 432 kts 315°
2026-05-06 16:07 38.44299 22.33798 36824 ft 434 kts 315°
2026-05-06 16:08 38.46522 22.31184 37098 ft 436 kts 315°
2026-05-06 16:08 38.48766 22.28544 37354 ft 437 kts 315°
2026-05-06 16:08 38.51008 22.25903 37576 ft 438 kts 315°
2026-05-06 16:08 38.53254 22.23255 37790 ft 440 kts 315°
2026-05-06 16:09 38.55503 22.20599 38022 ft 441 kts 315°
2026-05-06 16:09 38.57806 22.17993 38081 ft 443 kts 318°
2026-05-06 16:09 38.62556 22.13045 38075 ft 443 kts 319°
2026-05-06 16:10 38.67373 22.08079 38085 ft 444 kts 319°
2026-05-06 16:10 38.72192 22.03092 38100 ft 445 kts 319°
2026-05-06 16:11 38.77007 21.98099 38099 ft 444 kts 319°
2026-05-06 16:11 38.81811 21.93106 38102 ft 444 kts 319°
2026-05-06 16:12 38.86615 21.88105 38091 ft 444 kts 319°
2026-05-06 16:12 38.91417 21.83097 38089 ft 445 kts 319°
2026-05-06 16:13 38.96219 21.78081 38098 ft 444 kts 318°
2026-05-06 16:13 39.00985 21.73094 38093 ft 444 kts 318°
2026-05-06 16:14 39.05780 21.68063 38098 ft 444 kts 318°
2026-05-06 16:14 39.10604 21.62995 38106 ft 445 kts 318°
2026-05-06 16:15 39.15414 21.57932 38082 ft 445 kts 318°
2026-05-06 16:15 39.20223 21.52859 38109 ft 445 kts 318°
2026-05-06 16:16 39.25022 21.47791 38089 ft 445 kts 318°
2026-05-06 16:16 39.29783 21.42754 38086 ft 445 kts 318°
2026-05-06 16:17 39.34590 21.37655 38108 ft 446 kts 318°
2026-05-06 16:17 39.39379 21.32573 38088 ft 444 kts 318°
2026-05-06 16:18 39.44154 21.27490 38088 ft 444 kts 318°
2026-05-06 16:18 39.48973 21.22352 38100 ft 444 kts 318°
2026-05-06 16:19 39.53760 21.17238 38094 ft 444 kts 318°
2026-05-06 16:19 39.58512 21.12155 38094 ft 444 kts 317°
2026-05-06 16:20 39.63270 21.07056 38089 ft 442 kts 317°
2026-05-06 16:20 39.68027 21.01946 38089 ft 442 kts 317°
2026-05-06 16:21 39.72777 20.96835 38087 ft 442 kts 317°
2026-05-06 16:21 39.76717 20.92588 38087 ft 442 kts 317°
2026-05-06 16:22 39.82230 20.86635 38089 ft 442 kts 317°
2026-05-06 16:22 39.86198 20.82343 38095 ft 442 kts 317°
2026-05-06 16:23 39.90938 20.77211 38090 ft 442 kts 317°
2026-05-06 16:23 39.95638 20.72106 38082 ft 442 kts 317°
2026-05-06 16:24 40.00379 20.66950 38082 ft 443 kts 317°
2026-05-06 16:24 40.05110 20.61793 38080 ft 443 kts 317°
2026-05-06 16:25 40.09868 20.56670 38073 ft 443 kts 318°
2026-05-06 16:25 40.14681 20.51626 38075 ft 443 kts 318°
2026-05-06 16:26 40.19485 20.46582 38063 ft 443 kts 318°
2026-05-06 16:26 40.24275 20.41535 38065 ft 444 kts 318°
2026-05-06 16:27 40.43526 20.21129 38059 ft 443 kts 317°
2026-05-06 16:27 40.66580 19.96485 38053 ft 441 kts 317°
2026-05-06 16:28 40.88547 19.72788 38061 ft 442 kts 317°
2026-05-06 16:28 41.11187 19.48142 38075 ft 442 kts 317°
2026-05-06 16:29 41.32931 19.24261 38073 ft 443 kts 316°
2026-05-06 16:29 41.54132 19.00343 38076 ft 434 kts 315°
2026-05-06 16:30 41.71723 18.79695 38069 ft 436 kts 314°
2026-05-06 16:30 41.98295 18.48250 38065 ft 437 kts 314°
2026-05-06 16:31 42.20514 18.21676 38063 ft 435 kts 314°
2026-05-06 16:31 42.41877 17.95877 38059 ft 436 kts 314°
2026-05-06 16:32 42.63216 17.69866 38049 ft 437 kts 313°
2026-05-06 16:32 42.84512 17.43647 38038 ft 442 kts 313°
2026-05-06 16:33 43.05591 17.17449 38033 ft 440 kts 312°
2026-05-06 16:34 43.36191 16.75974 38059 ft 438 kts 309°
2026-05-06 16:34 43.56078 16.47983 38036 ft 440 kts 309°
2026-05-06 16:35 43.76216 16.19353 38012 ft 443 kts 308°
2026-05-06 16:35 43.95016 15.88985 38004 ft 441 kts 301°
2026-05-06 16:36 44.06520 15.67534 38010 ft 442 kts 301°
2026-05-06 16:36 44.10965 15.59215 38003 ft 442 kts 301°
2026-05-06 16:37 44.18238 15.45551 38006 ft 443 kts 301°
2026-05-06 16:37 44.21916 15.38616 38010 ft 444 kts 301°
2026-05-06 16:38 44.25586 15.31680 38002 ft 444 kts 301°
2026-05-06 16:38 44.30090 15.23149 37990 ft 444 kts 301°
2026-05-06 16:39 44.33749 15.16198 37982 ft 444 kts 301°
2026-05-06 16:39 44.37421 15.09204 37978 ft 445 kts 301°
2026-05-06 16:40 44.41088 15.02198 37982 ft 447 kts 301°
2026-05-06 16:40 44.44771 14.95152 37979 ft 448 kts 301°
2026-05-06 16:41 44.48456 14.88086 37976 ft 448 kts 301°
2026-05-06 16:41 44.52105 14.81069 37968 ft 448 kts 301°
2026-05-06 16:42 44.66119 14.53960 37958 ft 448 kts 301°
2026-05-06 16:42 44.83675 14.19635 37964 ft 450 kts 301°
2026-05-06 16:43 44.95054 13.97166 37952 ft 451 kts 301°
2026-05-06 16:43 44.98673 13.89984 37948 ft 451 kts 301°
2026-05-06 16:44 45.02313 13.82745 37944 ft 452 kts 300°
2026-05-06 16:44 45.05960 13.75468 37938 ft 452 kts 300°
2026-05-06 16:45 45.09593 13.68201 37939 ft 452 kts 300°
2026-05-06 16:45 45.13217 13.60936 37931 ft 452 kts 300°
2026-05-06 16:46 45.16840 13.53659 37954 ft 451 kts 300°
2026-05-06 16:46 45.20477 13.46326 37919 ft 452 kts 300°
2026-05-06 16:47 45.24095 13.39014 37912 ft 452 kts 300°
2026-05-06 16:47 45.27719 13.31673 37902 ft 452 kts 300°
2026-05-06 16:48 45.31328 13.24346 37937 ft 453 kts 300°
2026-05-06 16:48 45.35086 13.17153 37898 ft 452 kts 301°
2026-05-06 16:49 45.38872 13.09995 37891 ft 452 kts 301°
2026-05-06 16:49 45.42645 13.02821 37899 ft 452 kts 301°
2026-05-06 16:50 45.46420 12.95605 37892 ft 454 kts 301°
2026-05-06 16:50 45.50196 12.88384 37902 ft 454 kts 301°
2026-05-06 16:51 45.53964 12.81150 37891 ft 453 kts 301°
2026-05-06 16:51 45.57696 12.73961 37893 ft 453 kts 301°
2026-05-06 16:52 45.61448 12.66715 37892 ft 453 kts 300°
2026-05-06 16:52 45.65196 12.59461 37909 ft 453 kts 300°
2026-05-06 16:53 45.68941 12.52197 37898 ft 454 kts 300°
2026-05-06 16:53 45.72687 12.44904 37895 ft 454 kts 300°
2026-05-06 16:54 45.76433 12.37597 37896 ft 454 kts 300°
2026-05-06 16:54 45.80171 12.30288 37901 ft 454 kts 300°
2026-05-06 16:55 45.88993 12.12961 37901 ft 458 kts 300°
2026-05-06 16:55 46.06600 11.78061 37892 ft 460 kts 300°
2026-05-06 16:56 46.24774 11.41340 37875 ft 460 kts 300°
2026-05-06 16:56 46.33828 11.22833 37990 ft 460 kts 300°
2026-05-06 16:56 46.42859 11.04266 37879 ft 459 kts 300°
2026-05-06 16:57 46.60919 10.67043 37880 ft 460 kts 300°
2026-05-06 16:57 46.76792 10.29772 37862 ft 453 kts 288°
2026-05-06 16:58 46.88517 9.88556 37895 ft 456 kts 288°
2026-05-06 16:58 46.99693 9.48778 37882 ft 457 kts 288°
2026-05-06 16:59 47.11206 9.07095 37945 ft 461 kts 288°
2026-05-06 16:59 47.21716 8.67012 37936 ft 462 kts 286°
2026-05-06 17:00 47.31646 8.27566 37928 ft 463 kts 286°
2026-05-06 17:00 47.41212 7.88828 37916 ft 464 kts 286°
2026-05-06 17:01 47.50208 7.45261 37905 ft 461 kts 280°
2026-05-06 17:01 47.57364 7.01663 37899 ft 463 kts 280°
2026-05-06 17:02 47.64819 6.55075 37900 ft 465 kts 280°
2026-05-06 17:02 47.73040 6.09610 37901 ft 469 kts 285°
2026-05-06 17:03 47.82388 5.65041 37908 ft 469 kts 284°
2026-05-06 17:03 47.93264 5.21653 37914 ft 475 kts 301°
2026-05-06 17:04 48.13975 4.86243 37911 ft 477 kts 310°
2026-05-06 17:04 48.34485 4.51905 37917 ft 476 kts 310°
2026-05-06 17:05 48.55573 4.16083 37909 ft 475 kts 310°
2026-05-06 17:05 48.76656 3.80736 37916 ft 476 kts 314°
2026-05-06 17:06 48.99537 3.46580 37912 ft 475 kts 314°
2026-05-06 17:06 49.21912 3.12652 37911 ft 474 kts 313°
2026-05-06 17:07 49.44372 2.78128 37918 ft 473 kts 313°
2026-05-06 17:07 49.52630 2.65317 37926 ft 473 kts 313°
2026-05-06 17:08 49.57267 2.58095 37926 ft 473 kts 313°
2026-05-06 17:08 49.61783 2.50734 37936 ft 472 kts 309°
2026-05-06 17:09 49.66044 2.43033 37938 ft 471 kts 309°
2026-05-06 17:09 49.70248 2.35354 37899 ft 469 kts 309°
2026-05-06 17:09 49.72359 2.31500 37367 ft 469 kts 309°
2026-05-06 17:10 49.74477 2.27627 36448 ft 474 kts 309°
2026-05-06 17:10 49.76612 2.23713 35669 ft 477 kts 309°
2026-05-06 17:10 49.78744 2.19796 35012 ft 476 kts 310°
2026-05-06 17:10 49.80165 2.17190 34617 ft 475 kts 310°
2026-05-06 17:11 49.82295 2.13279 34010 ft 474 kts 310°
2026-05-06 17:11 49.84423 2.09369 33283 ft 474 kts 310°
2026-05-06 17:11 49.86551 2.05454 32467 ft 474 kts 310°
2026-05-06 17:11 49.88687 2.01521 31629 ft 477 kts 310°
2026-05-06 17:12 49.90836 1.97555 30773 ft 480 kts 310°
2026-05-06 17:12 49.92983 1.93589 30007 ft 480 kts 310°
2026-05-06 17:12 49.95132 1.89606 29200 ft 480 kts 310°
2026-05-06 17:12 49.97277 1.85637 28456 ft 477 kts 310°
2026-05-06 17:13 49.99408 1.81682 27749 ft 475 kts 310°
2026-05-06 17:13 50.01524 1.77747 27091 ft 471 kts 309°
2026-05-06 17:13 50.03605 1.73863 26644 ft 463 kts 309°
2026-05-06 17:13 50.05695 1.70082 26176 ft 457 kts 311°
2026-05-06 17:14 50.07871 1.66527 25715 ft 451 kts 315°
2026-05-06 17:14 50.10123 1.63222 25301 ft 446 kts 317°
2026-05-06 17:14 50.12440 1.60042 24843 ft 441 kts 318°
2026-05-06 17:14 50.14750 1.56912 24413 ft 436 kts 318°
2026-05-06 17:15 50.17037 1.53824 23985 ft 432 kts 318°
2026-05-06 17:15 50.19298 1.50764 23552 ft 428 kts 317°
2026-05-06 17:15 50.21532 1.47729 23048 ft 424 kts 317°
2026-05-06 17:15 50.23745 1.44707 22590 ft 420 kts 317°
2026-05-06 17:16 50.25935 1.41719 22154 ft 415 kts 318°
2026-05-06 17:16 50.28099 1.38755 21723 ft 411 kts 318°
2026-05-06 17:16 50.30246 1.35814 21295 ft 407 kts 317°
2026-05-06 17:16 50.32373 1.32902 20865 ft 404 kts 317°
2026-05-06 17:17 50.34448 1.30055 20459 ft 401 kts 317°
2026-05-06 17:17 50.36565 1.27147 20036 ft 397 kts 317°
2026-05-06 17:17 50.38635 1.24299 19620 ft 394 kts 317°
2026-05-06 17:17 50.40693 1.21464 19199 ft 392 kts 317°
2026-05-06 17:18 50.42707 1.18687 18784 ft 389 kts 317°
2026-05-06 17:18 50.44738 1.15883 18368 ft 387 kts 317°
2026-05-06 17:18 50.46756 1.13090 17910 ft 385 kts 317°
2026-05-06 17:18 50.48757 1.10319 17472 ft 382 kts 317°
2026-05-06 17:19 50.50737 1.07546 17053 ft 379 kts 316°
2026-05-06 17:19 50.52583 1.04680 16912 ft 366 kts 313°
2026-05-06 17:19 50.54311 1.01806 16812 ft 353 kts 312°
2026-05-06 17:19 50.55953 0.99038 16694 ft 340 kts 312°
2026-05-06 17:20 50.57545 0.96349 16528 ft 330 kts 312°
2026-05-06 17:20 50.59082 0.93749 16474 ft 317 kts 312°
2026-05-06 17:20 50.60558 0.91252 16376 ft 305 kts 312°
2026-05-06 17:20 50.61960 0.88879 16278 ft 294 kts 312°
2026-05-06 17:21 50.63326 0.86567 16213 ft 282 kts 312°
2026-05-06 17:21 50.64653 0.84318 16135 ft 271 kts 312°
2026-05-06 17:21 50.65931 0.82153 16065 ft 270 kts 312°
2026-05-06 17:21 50.67192 0.80003 15978 ft 269 kts 310°
2026-05-06 17:22 50.68403 0.77724 15746 ft 271 kts 308°
2026-05-06 17:22 50.69600 0.75387 15288 ft 275 kts 308°
2026-05-06 17:22 50.70806 0.73020 14901 ft 276 kts 308°
2026-05-06 17:22 50.71998 0.70682 14652 ft 271 kts 308°
2026-05-06 17:23 50.73159 0.68405 14398 ft 267 kts 308°
2026-05-06 17:23 50.74318 0.66132 14139 ft 263 kts 309°
2026-05-06 17:23 50.75457 0.63897 13894 ft 259 kts 309°
2026-05-06 17:23 50.76594 0.61663 13476 ft 263 kts 309°
2026-05-06 17:24 50.77752 0.59385 12941 ft 269 kts 309°
2026-05-06 17:24 50.78934 0.57057 12414 ft 274 kts 309°
2026-05-06 17:24 50.80133 0.54696 12005 ft 274 kts 309°
2026-05-06 17:24 50.81313 0.52370 11784 ft 267 kts 309°
2026-05-06 17:25 50.82456 0.50116 11585 ft 257 kts 309°
2026-05-06 17:25 50.83572 0.47912 11159 ft 258 kts 309°
2026-05-06 17:25 50.84696 0.45692 10767 ft 256 kts 309°
2026-05-06 17:25 50.85802 0.43503 10429 ft 252 kts 310°
2026-05-06 17:26 50.86893 0.41343 9904 ft 251 kts 310°
2026-05-06 17:26 50.87982 0.39192 9372 ft 249 kts 309°
2026-05-06 17:26 50.88943 0.36880 8849 ft 262 kts 296°
2026-05-06 17:26 50.89671 0.34164 8330 ft 271 kts 292°
2026-05-06 17:27 50.90338 0.31367 7812 ft 270 kts 291°
2026-05-06 17:27 50.90994 0.28575 7299 ft 267 kts 291°
2026-05-06 17:27 50.91630 0.25869 6804 ft 262 kts 291°
2026-05-06 17:27 50.92265 0.23176 6309 ft 260 kts 291°
2026-05-06 17:28 50.92905 0.20491 6018 ft 258 kts 291°
2026-05-06 17:28 50.93521 0.17897 6002 ft 244 kts 291°
2026-05-06 17:28 50.94101 0.15454 5989 ft 231 kts 291°
2026-05-06 17:28 50.94667 0.13075 6006 ft 230 kts 291°
2026-05-06 17:29 50.95235 0.10693 6008 ft 231 kts 291°
2026-05-06 17:29 50.95803 0.08304 5912 ft 229 kts 291°
2026-05-06 17:29 50.96365 0.05925 5551 ft 231 kts 290°
2026-05-06 17:29 50.96851 0.03502 5284 ft 230 kts 287°
2026-05-06 17:30 50.97287 0.01054 5023 ft 228 kts 286°
2026-05-06 17:30 50.97693 -0.01347 5019 ft 229 kts 286°
2026-05-06 17:30 50.98075 -0.03765 4880 ft 224 kts 286°
2026-05-06 17:30 50.98448 -0.06190 4523 ft 226 kts 285°
2026-05-06 17:31 50.98831 -0.08632 4187 ft 228 kts 285°
2026-05-06 17:31 50.99211 -0.11072 3878 ft 228 kts 286°
2026-05-06 17:31 50.99578 -0.13516 3639 ft 225 kts 286°
2026-05-06 17:31 50.99933 -0.15946 3569 ft 226 kts 285°
2026-05-06 17:32 51.00288 -0.18374 3495 ft 226 kts 285°
2026-05-06 17:32 51.00651 -0.20815 3425 ft 227 kts 285°
2026-05-06 17:32 51.01022 -0.23254 3352 ft 226 kts 286°
2026-05-06 17:32 51.01390 -0.25656 3273 ft 226 kts 285°
2026-05-06 17:33 51.01758 -0.28097 3200 ft 227 kts 286°
2026-05-06 17:33 51.02117 -0.30530 3115 ft 226 kts 286°
2026-05-06 17:33 51.02470 -0.32972 3038 ft 226 kts 285°
2026-05-06 17:33 51.02829 -0.35404 3008 ft 226 kts 285°
2026-05-06 17:34 51.03184 -0.37843 3003 ft 226 kts 285°
2026-05-06 17:34 51.03546 -0.40284 3004 ft 226 kts 285°
2026-05-06 17:34 51.03920 -0.42727 2998 ft 228 kts 285°
2026-05-06 17:34 51.04300 -0.45177 2998 ft 227 kts 286°
2026-05-06 17:35 51.04774 -0.47560 2986 ft 224 kts 303°
2026-05-06 17:35 51.05815 -0.49173 2991 ft 204 kts 334°
2026-05-06 17:35 51.07083 -0.49941 3024 ft 185 kts 344°
2026-05-06 17:36 51.09294 -0.48918 3015 ft 178 kts 45°
2026-05-06 17:36 51.10085 -0.47391 3014 ft 178 kts 50°
2026-05-06 17:36 51.10773 -0.45737 3005 ft 180 kts 59°
2026-05-06 17:36 51.11259 -0.43889 3002 ft 181 kts 68°
2026-05-06 17:37 51.11631 -0.41964 3001 ft 182 kts 71°
2026-05-06 17:37 51.11953 -0.39998 2772 ft 185 kts 74°
2026-05-06 17:37 51.12243 -0.37962 2416 ft 188 kts 75°
2026-05-06 17:37 51.12505 -0.35987 2146 ft 176 kts 75°
2026-05-06 17:38 51.12749 -0.34139 1917 ft 164 kts 74°
2026-05-06 17:38 51.12983 -0.32408 1705 ft 158 kts 74°
2026-05-06 17:38 51.13213 -0.30733 1495 ft 153 kts 75°
2026-05-06 17:38 51.13436 -0.29079 1306 ft 151 kts 73°
2026-05-06 17:39 51.13661 -0.27436 1101 ft 151 kts 74°
2026-05-06 17:39 51.13883 -0.25805 879 ft 150 kts 73°
2026-05-06 17:39 51.14114 -0.24187 678 ft 150 kts 75°
2026-05-06 17:39 51.14330 -0.22562 432 ft 149 kts 75°
2026-05-06 17:40 51.14541 -0.20957 262 ft 147 kts 74°
2026-05-06 17:40 51.14758 -0.19468 217 ft 127 kts 76°
2026-05-06 17:40 51.14907 -0.18387 213 ft 82 kts 76°
2026-05-06 17:40 51.14992 -0.17751 218 ft 46 kts 78°
2026-05-06 17:41 51.15076 -0.17312 219 ft 28 kts 60°
2026-05-06 17:41 51.15182 -0.17250 221 ft 10 kts 329°
2026-05-06 17:41 51.15184 -0.17252 221 ft 0 kts 329°
2026-05-06 17:43 51.15194 -0.17262 221 ft 5 kts 329°
2026-05-06 17:43 51.15244 -0.17311 219 ft 12 kts 327°
2026-05-06 17:43 51.15328 -0.17363 217 ft 14 kts 347°
2026-05-06 17:43 51.15438 -0.17401 217 ft 18 kts 348°
2026-05-06 17:44 51.15557 -0.17433 217 ft 16 kts 11°
2026-05-06 17:44 51.15595 -0.17350 218 ft 10 kts 76°
2026-05-06 17:44 51.15616 -0.17219 219 ft 15 kts 75°
2026-05-06 17:44 51.15660 -0.17053 219 ft 14 kts 26°
2026-05-06 17:45 51.15731 -0.16992 222 ft 14 kts 49°
2026-05-06 17:45 51.15762 -0.16938 221 ft 1 kts 47°
2026-05-06 17:45 51.15770 -0.16924 221 ft 0 kts 48°